Location: Peebles
(55.6412°N, 3.1714°W)
Time: 04:25:46
(UTC+00:00)

NOSS 3-2 (A) - Visible Passes

Search period start: 25 January 2022 00:00
Search period end: 04 February 2022 00:00
Orbit: 764 x 1444 km, 63.4° (Epoch: 22 January)

Date Brightness Start Highest point End Pass type
(mag) Time Alt. Az. Time Alt. Az. Time Alt. Az.
25 Jan 3.6 17:01:59 10° WSW 17:07:50 80° NW 17:14:49 10° NE visible
25 Jan 4.3 18:53:30 10° W 18:59:32 46° N 19:03:11 26° NE visible
25 Jan 4.4 20:45:06 10° WNW 20:50:34 48° N 20:50:34 48° N visible
25 Jan 5.8 22:36:03 10° NW 22:37:58 21° NW 22:37:58 21° NW visible
26 Jan 4.1 18:07:45 10° W 18:13:44 51° NNW 18:19:17 16° NE visible
26 Jan 4.2 19:59:30 10° WNW 20:05:52 47° N 20:06:40 46° NNE visible
26 Jan 5.2 21:50:36 10° NW 21:54:03 33° NW 21:54:03 33° NW visible
27 Jan 4.0 17:22:04 10° WSW 17:28:01 59° NNW 17:35:04 10° NE visible
27 Jan 4.3 19:13:50 10° WNW 19:20:02 45° N 19:22:47 32° NE visible
27 Jan 4.5 21:05:08 10° NW 21:10:10 50° NNW 21:10:10 50° NNW visible
27 Jan 6.0 22:56:00 10° NW 22:57:34 18° WNW 22:57:34 18° WNW visible
28 Jan 4.3 18:28:08 10° WNW 18:34:12 45° N 18:38:54 21° ENE visible
28 Jan 4.1 20:19:38 10° WNW 20:26:17 56° NNE 20:26:17 56° NNE visible
28 Jan 5.3 22:10:32 10° NW 22:13:40 30° NW 22:13:40 30° NW visible
29 Jan 4.2 17:42:24 10° W 17:48:23 48° NNW 17:55:01 12° ENE visible
29 Jan 4.2 19:34:04 10° WNW 19:40:32 49° NNE 19:42:25 41° NE visible
29 Jan 4.6 21:25:05 10° NW 21:29:48 48° NW 21:29:48 48° NW visible
29 Jan 6.1 23:16:06 10° WNW 23:17:13 15° WNW 23:17:13 15° WNW visible
30 Jan 4.3 18:48:26 10° WNW 18:54:44 46° N 18:58:33 26° ENE visible
30 Jan 4.0 20:39:38 10° NW 20:45:58 68° N 20:45:58 68° N visible
30 Jan 5.6 22:30:31 10° NW 22:33:21 26° WNW 22:33:21 26° WNW visible
31 Jan 4.3 18:02:46 10° WNW 18:08:53 45° N 18:14:44 15° ENE visible
31 Jan 4.0 19:54:08 10° NW 20:00:56 60° NNE 20:02:08 54° ENE visible
31 Jan 4.8 21:45:02 10° NW 21:49:32 42° WNW 21:49:32 42° WNW visible
31 Jan 6.3 23:36:36 10° WNW 23:36:56 11° WNW 23:36:56 11° WNW visible
01 Feb 4.3 17:17:02 10° W 17:23:03 46° N 17:30:10 10° ENE visible
01 Feb 4.1 19:08:37 10° WNW 19:15:12 52° NNE 19:18:20 34° ENE visible
01 Feb 4.1 20:59:34 10° NW 21:05:44 70° WNW 21:05:44 70° WNW visible
01 Feb 5.8 22:50:43 10° WNW 22:53:08 20° WNW 22:53:08 20° WNW visible
02 Feb 4.3 18:23:02 10° WNW 18:29:23 47° N 18:34:35 20° ENE visible
02 Feb 3.8 20:14:07 10° NW 20:21:11 79° NE 20:21:59 71° E visible
02 Feb 5.2 22:05:03 10° NW 22:09:23 34° W 22:09:23 34° W visible
03 Feb 4.3 17:37:22 10° WNW 17:43:34 45° N 17:50:51 10° ENE visible
03 Feb 3.9 19:28:39 10° NW 19:35:33 66° NNE 19:38:16 42° E visible
03 Feb 4.4 21:19:31 10° NW 21:25:41 55° WSW 21:25:41 55° WSW visible
03 Feb 6.2 23:11:29 10° WNW 23:13:05 14° W 23:13:05 14° W visible
